Weather History for Phoenix, AZ

Change the Weather History Date:

Wednesday, November 21, 2012

  Actual Average Record
Temperature  
Mean Temperature 69 °F 62 °F  
Max Temperature 82 °F 73 °F 88 °F (1924)
Min Temperature 56 °F 51 °F 30 °F (1948)
Degree Days  
Heating Degree Days 0 4  
Month to date heating degree days 27 46  
Since 1 July heating degree days 27 52  
Cooling Degree Days 4 1  
Month to date cooling degree days 105 65  
Year to date cooling degree days 5033 4601  
Growing Degree Days 18 (Base 50)    
Moisture  
Dew Point 36 °F    
Average Humidity 32    
Maximum Humidity 43    
Minimum Humidity 20    
Precipitation  
Precipitation 0.00 in 0.02 in 0.60 in (1902)
Month to date precipitation 0.05 0.41  
Year to date precipitation 3.41 6.91  
Snow  
Snow 0.00 in - - ()
Month to date snowfall 0.0  
Year to date snowfall 0.0  
Since 1 July snowfall 0.0  
Snow Depth 0.00 in    
Sea Level Pressure  
Sea Level Pressure 29.96 in    
Wind  
Wind Speed 2 mph (WSW)    
Max Wind Speed 9 mph    
Max Gust Speed 12 mph    
Visibility 10 miles    
Events      
T = Trace of Precipitation, MM = Missing Value Source: NWS Daily Summary

Daily Weather History Graph

Daily Weather History Graph

Search for Another Location

Airport:

Trip Planner

Search our weather history database for the weather conditions in past years. The results will help you decide how hot, cold, wet, or windy it might be!

Date:

Astronomy

Nov. 21, 2012 Rise Set
Actual Time 7:05 AM MST 5:22 PM MST
Civil Twilight 6:38 AM MST 5:49 PM MST
Nautical Twilight 6:08 AM MST 6:19 PM MST
Astronomical Twilight 5:38 AM MST 6:49 PM MST
Moon 1:24 PM MST (11/21) 12:46 AM MST (11/21)
Length of Visible Light 11h 10m
Length of Day
10h 16m
Waxing Gibbous, 62% of the Moon is Illuminated
Nov 21
Waxing Gibbous
Nov 28
Full
Dec 6
Last Quarter
Dec 13
New
Dec 19
First Quarter

Hourly Weather History & Observations

Time (MST) Temp. Dew Point Humidity Pressure Visibility Wind Dir Wind Speed Gust Speed Precip Events Conditions
12:51 AM 62.1 °F 37.0 °F 39% 29.96 in 10.0 mi Calm Calm - N/A   Mostly Cloudy
1:51 AM 61.0 °F 37.0 °F 41% 29.95 in 10.0 mi Calm Calm - N/A   Scattered Clouds
2:51 AM 61.0 °F 36.0 °F 39% 29.95 in 10.0 mi Calm Calm - N/A   Scattered Clouds
3:51 AM 57.9 °F 36.0 °F 44% 29.94 in 10.0 mi Calm Calm - N/A   Scattered Clouds
4:51 AM 57.9 °F 35.1 °F 42% 29.95 in 10.0 mi WSW 3.5 mph - N/A   Partly Cloudy
5:51 AM 57.0 °F 34.0 °F 42% 29.96 in 10.0 mi Calm Calm - N/A   Partly Cloudy
6:51 AM 57.0 °F 34.0 °F 42% 29.97 in 10.0 mi Calm Calm - N/A   Scattered Clouds
7:51 AM 61.0 °F 35.1 °F 38% 29.99 in 10.0 mi Calm Calm - N/A   Scattered Clouds
8:51 AM 66.0 °F 37.0 °F 34% 30.01 in 10.0 mi East 4.6 mph - N/A   Scattered Clouds
9:51 AM 71.6 °F 35.6 °F 27% 30.05 in 10.0 mi Calm Calm - N/A   Scattered Clouds
10:51 AM 73.9 °F 36.0 °F 25% 30.01 in 10.0 mi Calm Calm - N/A   Scattered Clouds
11:51 AM 75.0 °F 36.0 °F 24% 29.99 in 10.0 mi Calm Calm - N/A   Scattered Clouds
12:51 PM 77.0 °F 36.0 °F 23% 29.95 in 10.0 mi Calm Calm - N/A   Scattered Clouds
1:51 PM 79.0 °F 36.0 °F 21% 29.93 in 10.0 mi Calm Calm - N/A   Scattered Clouds
2:51 PM 81.0 °F 35.1 °F 19% 29.91 in 10.0 mi NE 4.6 mph - N/A   Scattered Clouds
3:51 PM 81.0 °F 36.0 °F 20% 29.90 in 10.0 mi SSW 3.5 mph - N/A   Scattered Clouds
4:51 PM 79.0 °F 35.1 °F 20% 29.91 in 10.0 mi West 4.6 mph - N/A   Scattered Clouds
5:51 PM 75.9 °F 36.0 °F 23% 29.92 in 10.0 mi WSW 5.8 mph - N/A   Scattered Clouds
6:51 PM 73.9 °F 35.1 °F 24% 29.94 in 10.0 mi West 6.9 mph - N/A   Clear
7:51 PM 69.1 °F 37.0 °F 31% 29.94 in 10.0 mi WSW 4.6 mph - N/A   Clear
8:51 PM 68.0 °F 36.0 °F 31% 29.94 in 10.0 mi Calm Calm - N/A   Clear
9:51 PM 69.1 °F 37.0 °F 31% 29.94 in 10.0 mi Calm Calm - N/A   Clear
10:51 PM 62.1 °F 37.0 °F 39% 29.95 in 10.0 mi Calm Calm - N/A   Clear
11:51 PM 62.6 °F 37.4 °F 39% 29.99 in 10.0 mi Calm Calm - N/A   Clear